SCP
0 0 0 0 0 0 0 0 0 0 0 0 0 0 0 0 0 0 0 0 0 1 1 1 0 0 0 0 0 0 0 0
0 0 0 0 0 0 0 0 0 0 0 0 0 0 0 0 0 0 0 0 0 1 1 0 0 0 0 0 0 0 0 0
0 0 0 0 0 0 0 0 0 0 0 0 0 0 0 0 0 0 0 0 0 1 1 1 1 0 1 0 0 0 0 0
0 0 0 0 0 0 0 0 0 0 0 0 0 0 0 0 0 0 0 0 0 0 1 1 1 0 0 0 0 0 0 0
0 0 0 0 0 0 0 0 0 0 0 0 0 0 0 0 0 0 0 0 0 0 0 0 0 0 0 0 0 0 0 0
0 0 0 0 0 0 0 0 0 0 0 0 0 0 0 0 0 0 0 0 0 0 0 0 0 0 0 0 0 0 0 0
0 0 0 0 0 0 0 0 0 0 0 0 0 0 0 0 0 0 0 0 0 0 0 0 0 0 0 0 0 0 0 0
0 0 0 0 0 0 0 0 0 0 0 0 0 0 0 0 0 0 0 0 0 0 0 0 0 0 0 0 0 0 0 0
0 0 0 0 0 0 0 0 0 0 0 0 0 0 0 0 0 0 0 0 0 0 0 0 0 0 0 0 0 0 0 0
0 0 0 0 0 0 0 0 0 0 0 0 0 0 0 0 0 0 0 0 0 0 0 0 0 0 0 0 0 0 0 0
0 0 0 0 0 0 0 0 0 0 0 0 0 0 0 0 0 0 0 0 0 0 0 0 0 0 0 0 0 0 0 0
0 0 0 0 0 0 0 0 0 0 0 0 0 0 0 0 0 0 0 0 0 0 0 0 0 0 0 0 0 0 0 0
0 0 0 0 0 0 0 0 0 0 0 0 0 0 0 0 0 0 0 0 0 0 0 0 0 0 0 0 0 0 0 0
0 0 0 0 0 0 0 0 0 0 0 0 0 0 0 0 0 0 0 0 0 0 0 0 0 0 0 0 0 0 0 0
0 0 0 0 0 0 0 0 0 0 0 0 0 0 0 0 0 0 0 0 0 0 0 0 0 0 0 0 0 0 0 0
0 0 0 0 0 0 0 0 0 0 0 0 0 0 0 0 0 0 0 0 0 0 0 0 0 0 0 0 0 0 0 -0
0 0 0 0 0 0 0 0 0 0 0 0 0 0 0 0 0 0 0 0 0 0 0 0 0 0 0 0 0 0 0 0
0 0 0 0 0 0 0 0 -0 -0 0 0 0 0 0 0 0 0 0 0 0 0 0 0 0 0 0 0 0 0 0 0
0 0 0 0 0 0 0 0 0 0 0 0 0 0 0 0 0 0 0 0 0 0 0 0 0 0 0 0 0 0 0 0
0 0 0 0 0 0 0 0 0 0 0 0 0 0 0 0 0 0 0 0 0 0 0 0 0 0 0 0 0 0 0 0
Wind_Speed_500mb
7 6 9 10 12 14 9 14 11 6 1 3 5 7 4 9 9 16 21 24 20 18 24 27 28 33 36 38 43 46 49 48
7 10 12 12 11 9 5 11 16 10 4 4 8 4 1 5 11 19 26 24 22 25 27 27 30 35 39 41 46 49 44 46
2 10 9 11 11 25 11 4 10 16 7 6 9 4 5 10 13 18 22 26 25 24 25 31 34 35 42 47 51 49 44 44
6 12 9 11 18 21 15 20 7 8 11 7 9 9 12 14 15 19 19 18 17 19 24 28 35 40 44 51 54 54 53 48
8 11 11 10 19 15 20 10 10 13 10 7 16 16 15 13 17 20 20 22 22 24 31 34 36 41 51 59 58 55 54 52
9 9 15 11 20 10 22 14 13 16 10 10 24 19 15 13 19 22 24 24 28 30 32 36 43 52 54 47 50 56 54 45
11 7 13 8 6 8 15 21 15 17 10 12 24 19 14 16 20 21 23 26 31 32 32 41 45 44 44 44 39 40 40 49
14 12 11 11 15 24 10 12 5 15 18 26 23 18 14 19 23 24 27 30 31 31 32 37 39 41 40 37 31 22 30 39
24 29 27 15 11 21 14 8 24 34 38 31 24 16 14 20 21 24 29 31 28 29 28 35 33 35 35 24 20 24 26 20
25 34 15 13 15 12 31 22 23 29 30 30 24 14 13 13 18 22 29 28 33 29 27 35 31 30 29 20 16 20 16 11
15 22 25 18 16 10 35 26 16 31 34 28 23 16 7 9 19 26 30 27 31 28 28 31 26 29 24 21 18 12 8 8
5 8 13 14 3 10 22 24 31 37 37 32 23 12 3 7 18 26 29 26 27 28 29 31 22 26 21 18 17 11 2 5
4 8 6 7 7 18 22 35 38 43 38 31 22 13 5 9 18 25 24 28 31 28 29 26 22 22 19 16 12 7 4 4
9 9 7 15 19 11 30 47 47 45 40 33 25 12 3 6 16 23 19 28 32 29 29 26 22 21 16 16 10 7 2 4
11 19 5 9 17 6 25 56 48 46 41 35 26 17 5 2 12 20 18 27 33 31 30 24 24 18 16 16 12 7 4 6
8 6 7 7 27 12 18 52 49 48 43 38 30 19 8 1 7 17 16 24 32 31 30 27 22 19 16 16 12 9 6 6
8 10 9 14 19 31 22 39 30 47 50 44 34 22 13 6 2 12 19 15 26 27 33 33 23 21 19 15 15 10 9 8
11 5 11 16 20 17 15 26 53 58 57 50 40 30 20 12 3 6 18 11 20 20 27 35 25 20 22 23 18 12 18 21
14 3 6 3 13 11 10 13 25 42 54 54 47 35 26 18 7 1 14 12 15 18 24 27 23 20 25 26 24 17 22 22
9 4 9 7 11 13 10 12 14 39 58 59 51 37 27 22 13 4 10 12 12 18 21 21 25 24 30 33 35 28 26 34
Wind_Direction_500mb
83 107 201 229 229 210 247 231 199 166 300 211 194 196 237 217 284 294 311 317 309 291 292 284 283 281 282 282 288 294 296 294
95 222 261 219 249 198 243 222 222 206 182 203 204 138 195 309 299 312 327 317 302 290 277 271 277 273 280 281 285 289 280 277
8 251 248 256 259 181 188 218 217 195 205 207 159 158 224 272 283 301 298 293 290 269 260 279 280 284 287 288 291 279 269 266
304 277 279 259 214 182 192 212 210 167 150 203 183 200 237 281 285 296 289 293 287 282 287 295 297 295 291 292 287 277 273 263
246 272 300 236 202 199 198 209 224 167 143 211 200 224 253 260 294 299 300 302 303 304 305 302 293 287 289 291 288 278 275 270
241 254 266 227 187 246 183 209 179 186 198 218 206 212 225 275 294 304 306 309 312 311 306 295 295 297 295 292 286 277 272 266
247 200 249 212 168 208 201 161 189 196 237 236 188 201 238 276 300 305 312 317 321 317 306 303 307 309 302 295 293 279 271 265
200 200 237 218 195 177 188 158 162 181 187 171 186 206 248 294 315 326 333 337 329 318 314 320 320 320 314 304 295 290 279 275
236 235 242 214 214 184 166 252 214 203 175 179 196 217 273 310 329 335 343 340 336 330 320 332 332 334 334 322 307 301 303 295
264 235 183 190 178 203 188 230 257 231 199 190 204 230 284 327 341 346 347 351 346 337 324 327 328 336 347 339 310 311 322 318
247 191 204 203 205 197 217 249 233 193 192 199 209 227 267 344 348 353 351 352 357 344 342 336 332 337 338 334 331 322 335 25
153 190 209 169 201 183 236 213 186 195 200 208 211 214 265 339 356 357 357 5 355 346 349 343 344 348 350 343 341 328 291 54
263 167 243 139 298 235 225 190 194 198 202 200 199 200 302 345 4 3 7 10 1 358 355 350 350 355 356 1 5 19 110 118
279 161 249 159 263 266 222 193 201 198 198 198 198 209 270 349 5 11 15 12 3 3 3 1 1 360 357 12 3 14 40 181
310 207 135 177 265 277 211 200 204 199 200 199 198 205 212 332 9 18 20 15 4 360 3 3 6 359 15 22 15 357 324 263
242 241 186 223 265 257 228 204 207 201 200 201 205 213 201 205 12 24 20 16 10 13 9 3 359 4 17 29 27 21 9 335
266 242 178 235 252 273 220 213 207 206 201 203 206 203 200 201 8 28 21 15 10 20 23 18 16 25 45 36 18 343 14 27
274 278 163 271 271 263 189 224 214 211 204 205 198 196 201 200 217 27 28 27 11 20 18 23 25 36 44 25 34 29 52 67
239 319 239 151 307 301 268 242 221 226 215 210 204 200 199 200 206 76 39 40 25 32 19 27 32 45 53 36 52 62 72 76
267 47 271 133 271 286 284 278 228 215 210 208 201 202 202 197 201 166 62 48 45 37 22 40 40 50 71 50 59 76 89 79
Wind_Speed_850mb
7 6 9 10 12 14 9 14 11 6 1 3 5 7 4 9 9 16 21 24 20 18 24 27 28 33 36 38 43 46 49 48
7 10 12 12 11 9 5 11 16 10 4 4 8 4 1 5 11 19 26 24 22 25 27 27 30 35 39 41 46 49 44 46
2 10 9 11 11 25 11 4 10 16 7 6 9 4 5 10 13 18 22 26 25 24 25 31 34 35 42 47 51 49 44 44
6 12 9 11 18 21 15 20 7 8 11 7 9 9 12 14 15 19 19 18 17 19 24 28 35 40 44 51 54 54 53 48
8 11 11 10 19 15 20 10 10 13 10 7 16 16 15 13 17 20 20 22 22 24 31 34 36 41 51 59 58 55 54 52
9 9 15 11 20 10 22 14 13 16 10 10 24 19 15 13 19 22 24 24 28 30 32 36 43 52 54 47 50 56 54 45
11 7 13 8 6 8 15 21 15 17 10 12 24 19 14 16 20 21 23 26 31 32 32 41 45 44 44 44 39 40 40 49
14 12 11 11 15 24 10 12 5 15 18 26 23 18 14 19 23 24 27 30 31 31 32 37 39 41 40 37 31 22 30 39
24 29 27 15 11 21 14 8 24 34 38 31 24 16 14 20 21 24 29 31 28 29 28 35 33 35 35 24 20 24 26 20
25 34 15 13 15 12 31 22 23 29 30 30 24 14 13 13 18 22 29 28 33 29 27 35 31 30 29 20 16 20 16 11
15 22 25 18 16 10 35 26 16 31 34 28 23 16 7 9 19 26 30 27 31 28 28 31 26 29 24 21 18 12 8 8
5 8 13 14 3 10 22 24 31 37 37 32 23 12 3 7 18 26 29 26 27 28 29 31 22 26 21 18 17 11 2 5
4 8 6 7 7 18 22 35 38 43 38 31 22 13 5 9 18 25 24 28 31 28 29 26 22 22 19 16 12 7 4 4
9 9 7 15 19 11 30 47 47 45 40 33 25 12 3 6 16 23 19 28 32 29 29 26 22 21 16 16 10 7 2 4
11 19 5 9 17 6 25 56 48 46 41 35 26 17 5 2 12 20 18 27 33 31 30 24 24 18 16 16 12 7 4 6
8 6 7 7 27 12 18 52 49 48 43 38 30 19 8 1 7 17 16 24 32 31 30 27 22 19 16 16 12 9 6 6
8 10 9 14 19 31 22 39 30 47 50 44 34 22 13 6 2 12 19 15 26 27 33 33 23 21 19 15 15 10 9 8
11 5 11 16 20 17 15 26 53 58 57 50 40 30 20 12 3 6 18 11 20 20 27 35 25 20 22 23 18 12 18 21
14 3 6 3 13 11 10 13 25 42 54 54 47 35 26 18 7 1 14 12 15 18 24 27 23 20 25 26 24 17 22 22
9 4 9 7 11 13 10 12 14 39 58 59 51 37 27 22 13 4 10 12 12 18 21 21 25 24 30 33 35 28 26 34
Wind_Direction_850mb
83 107 201 229 229 210 247 231 199 166 300 211 194 196 237 217 284 294 311 317 309 291 292 284 283 281 282 282 288 294 296 294
95 222 261 219 249 198 243 222 222 206 182 203 204 138 195 309 299 312 327 317 302 290 277 271 277 273 280 281 285 289 280 277
8 251 248 256 259 181 188 218 217 195 205 207 159 158 224 272 283 301 298 293 290 269 260 279 280 284 287 288 291 279 269 266
304 277 279 259 214 182 192 212 210 167 150 203 183 200 237 281 285 296 289 293 287 282 287 295 297 295 291 292 287 277 273 263
246 272 300 236 202 199 198 209 224 167 143 211 200 224 253 260 294 299 300 302 303 304 305 302 293 287 289 291 288 278 275 270
241 254 266 227 187 246 183 209 179 186 198 218 206 212 225 275 294 304 306 309 312 311 306 295 295 297 295 292 286 277 272 266
247 200 249 212 168 208 201 161 189 196 237 236 188 201 238 276 300 305 312 317 321 317 306 303 307 309 302 295 293 279 271 265
200 200 237 218 195 177 188 158 162 181 187 171 186 206 248 294 315 326 333 337 329 318 314 320 320 320 314 304 295 290 279 275
236 235 242 214 214 184 166 252 214 203 175 179 196 217 273 310 329 335 343 340 336 330 320 332 332 334 334 322 307 301 303 295
264 235 183 190 178 203 188 230 257 231 199 190 204 230 284 327 341 346 347 351 346 337 324 327 328 336 347 339 310 311 322 318
247 191 204 203 205 197 217 249 233 193 192 199 209 227 267 344 348 353 351 352 357 344 342 336 332 337 338 334 331 322 335 25
153 190 209 169 201 183 236 213 186 195 200 208 211 214 265 339 356 357 357 5 355 346 349 343 344 348 350 343 341 328 291 54
263 167 243 139 298 235 225 190 194 198 202 200 199 200 302 345 4 3 7 10 1 358 355 350 350 355 356 1 5 19 110 118
279 161 249 159 263 266 222 193 201 198 198 198 198 209 270 349 5 11 15 12 3 3 3 1 1 360 357 12 3 14 40 181
310 207 135 177 265 277 211 200 204 199 200 199 198 205 212 332 9 18 20 15 4 360 3 3 6 359 15 22 15 357 324 263
242 241 186 223 265 257 228 204 207 201 200 201 205 213 201 205 12 24 20 16 10 13 9 3 359 4 17 29 27 21 9 335
266 242 178 235 252 273 220 213 207 206 201 203 206 203 200 201 8 28 21 15 10 20 23 18 16 25 45 36 18 343 14 27
274 278 163 271 271 263 189 224 214 211 204 205 198 196 201 200 217 27 28 27 11 20 18 23 25 36 44 25 34 29 52 67
239 319 239 151 307 301 268 242 221 226 215 210 204 200 199 200 206 76 39 40 25 32 19 27 32 45 53 36 52 62 72 76
267 47 271 133 271 286 284 278 228 215 210 208 201 202 202 197 201 166 62 48 45 37 22 40 40 50 71 50 59 76 89 79